GW4465 Weather Reports


time (UTC)temp
C
wind
direction
speed
KPH
gust
KPH
rain 1hr
cm
rain 24hr
cm
rain mn
cm
humidity
%
barometer
mb
20260906095420 20 37 0.0 3.2 0.00 0.00 0.00 99 1016.2
20260906094914 20 64 3.2 4.8 0.00 0.00 0.00 99 1016.3
20260906094409 20 56 3.2 4.8 0.00 0.00 0.00 99 1016.2
20260906093905 20 49 0.0 3.2 0.00 0.00 0.00 99 1016.2
20260906093402 20 33 0.0 3.2 0.00 0.00 0.00 99 1016.5
20260906092900 20 346 0.0 0.0 0.00 0.00 0.00 99 1016.3
20260906092355 20 56 3.2 4.8 0.00 0.00 0.00 99 1016.3
20260906091850 20 62 3.2 4.8 0.00 0.00 0.00 99 1016.3
20260906091346 20 30 0.0 0.0 0.00 0.00 0.00 99 1016.2
20260906090842 20 23 0.0 0.0 0.00 0.00 0.00 99 1016.1
20260906090342 20 36 0.0 3.2 0.00 0.00 0.00 99 1016.2
20260906085836 20 337 3.2 3.2 0.00 0.00 0.00 99 1016.2
20260906085335 20 41 0.0 0.0 0.00 0.00 0.00 99 1015.9
20260906084830 20 324 0.0 0.0 0.00 0.00 0.00 99 1016.2
20260906084330 20 331 0.0 0.0 0.00 0.00 0.00 99 1016.2
20260906083824 20 312 0.0 0.0 0.00 0.00 0.00 99 1016.4
20260906083320 20 218 0.0 3.2 0.00 0.00 0.00 99 1016.5
20260906082814 20 6 0.0 3.2 0.00 0.00 0.00 99 1016.3
20260906082309 20 54 0.0 4.8 0.00 0.00 0.00 99 1016.2
20260906081805 20 50 3.2 4.8 0.00 0.00 0.00 99 1016.3
20260906081301 20 150 0.0 0.0 0.00 0.00 0.00 99 1016.3
20260906080757 20 23 0.0 3.2 0.00 0.00 0.00 99 1016.2
20260906080253 20 33 3.2 4.8 0.00 0.00 0.00 99 1016.2
20260906075747 20 68 3.2 4.8 0.00 0.00 0.00 99 1016.3
20260906075247 20 40 0.0 4.8 0.00 0.00 0.00 99 1016.2
20260906074743 20 25 0.0 3.2 0.00 0.00 0.00 99 1016.2
20260906074242 20 342 3.2 3.2 0.00 0.00 0.00 99 1015.9
20260906073742 20 21 3.2 3.2 0.00 0.00 0.00 99 1016.1
20260906073236 20 27 4.8 4.8 0.00 0.00 0.00 99 1015.9
20260906072732 20 23 0.0 3.2 0.00 0.00 0.00 99 1015.7
20260906072228 20 30 0.0 4.8 0.00 0.00 0.00 99 1015.9
20260906071724 20 324 0.0 0.0 0.00 0.00 0.00 99 1015.8
20260906071224 20 159 0.0 3.2 0.00 0.00 0.00 99 1016.2
20260906070720 20 68 3.2 4.8 0.00 0.00 0.00 99 1016.3
20260906070216 20 17 0.0 3.2 0.00 0.00 0.00 99 1016.2
20260906065715 20 306 4.8 4.8 0.00 0.00 0.00 99 1016.1
20260906065211 20 347 3.2 3.2 0.00 0.00 0.00 99 1016.1
20260906064706 20 16 0.0 3.2 0.00 0.00 0.00 99 1016.2
20260906064201 20 25 0.0 3.2 0.00 0.00 0.00 99 1015.9
20260906063656 20 23 0.0 3.2 0.00 0.00 0.00 99 1015.9
20260906063152 20 46 0.0 4.8 0.00 0.00 0.00 99 1016.3
20260906062648 20 32 0.0 3.2 0.00 0.00 0.00 99 1016.3
20260906062146 20 311 0.0 3.2 0.00 0.00 0.00 99 1016.2
20260906061643 20 305 0.0 3.2 0.00 0.00 0.00 99 1016.1
20260906061142 20 306 0.0 3.2 0.00 0.00 0.00 99 1016.3
20260906060639 20 50 0.0 3.2 0.00 0.00 0.00 99 1016.2
20260906060136 20 63 3.2 4.8 0.00 0.00 0.00 99 1016.4
20260906055631 20 33 0.0 4.8 0.00 0.00 0.00 99 1016.6
20260906055126 20 50 3.2 4.8 0.00 0.00 0.00 99 1016.7
20260906054621 20 344 3.2 3.2 0.00 0.00 0.00 99 1016.8
20260906054116 20 51 0.0 0.0 0.00 0.00 0.00 99 1016.8
20260906053613 20 27 0.0 3.2 0.00 0.00 0.00 99 1016.8
20260906053108 20 76 3.2 4.8 0.00 0.00 0.00 99 1017.0
20260906052604 20 60 0.0 4.8 0.00 0.00 0.00 99 1017.0
20260906052100 20 53 0.0 4.8 0.00 0.00 0.00 99 1017.0
20260906051556 20 71 3.2 3.2 0.00 0.00 0.00 99 1017.0
20260906051051 20 71 0.0 0.0 0.00 0.00 0.00 99 1017.0
20260906050546 20 60 3.2 4.8 0.00 0.00 0.00 99 1017.2
20260906050041 20 22 0.0 3.2 0.00 0.00 0.00 99 1017.2
20260906045539 20 66 0.0 0.0 0.00 0.00 0.00 99 1017.3
20260906045035 20 51 4.8 4.8 0.00 0.00 0.00 99 1017.5
20260906044531 20 283 0.0 4.8 0.00 0.00 0.00 99 1017.2
20260906044026 20 59 0.0 3.2 0.00 0.00 0.00 99 1017.3
20260906043521 20 63 4.8 6.4 0.00 0.00 0.00 99 1017.1
20260906043018 20 38 0.0 3.2 0.00 0.00 0.00 99 1017.2
20260906042517 20 119 0.0 3.2 0.00 0.00 0.00 99 1016.9
20260906042016 20 68 4.8 4.8 0.00 0.00 0.00 99 1017.0
20260906041514 20 36 0.0 0.0 0.00 0.00 0.00 99 1017.0
20260906041013 20 19 0.0 0.0 0.00 0.00 0.00 99 1017.0
20260906040508 20 338 0.0 4.8 0.00 0.00 0.00 99 1017.0
20260906040003 20 214 0.0 4.8 0.00 0.00 0.00 99 1017.2
20260906035458 20 344 3.2 4.8 0.00 0.00 0.00 99 1017.3
20260906034954 20 84 4.8 6.4 0.00 0.00 0.00 99 1017.2
20260906034454 20 20 0.0 3.2 0.00 0.00 0.00 99 1017.1
20260906033950 20 83 3.2 4.8 0.00 0.00 0.00 99 1017.1
20260906033449 20 155 0.0 4.8 0.00 0.00 0.00 99 1017.4
20260906032946 20 19 0.0 3.2 0.00 0.00 0.00 99 1017.2
20260906032443 20 338 0.0 3.2 0.00 0.00 0.00 99 1017.1
20260906031942 20 17 0.0 3.2 0.00 0.00 0.00 99 1017.1
20260906031437 20 71 0.0 0.0 0.00 0.00 0.00 99 1017.2
20260906030932 20 308 0.0 4.8 0.00 0.00 0.00 99 1017.2
20260906030427 20 321 4.8 6.4 0.00 0.00 0.00 99 1017.1
20260906025922 20 313 3.2 4.8 0.00 0.00 0.00 99 1017.1
20260906025416 20 43 3.2 4.8 0.00 0.00 0.00 99 1017.0
20260906024915 20 118 3.2 6.4 0.00 0.00 0.00 99 1017.1
20260906024414 20 311 0.0 0.0 0.00 0.00 0.00 99 1017.2
20260906023910 20 304 3.2 4.8 0.00 0.00 0.00 99 1017.3
20260906023407 20 78 4.8 6.4 0.00 0.00 0.00 99 1017.2
20260906022906 20 282 3.2 4.8 0.00 0.00 0.00 99 1017.3
20260906022401 20 72 4.8 6.4 0.00 0.00 0.00 99 1016.9
20260906021857 21 163 0.0 3.2 0.00 0.00 0.00 99 1016.8
20260906021356 20 44 0.0 4.8 0.00 0.00 0.00 99 1017.0
20260906020851 20 186 3.2 4.8 0.00 0.00 0.00 99 1017.1
20260906020345 20 72 3.2 4.8 0.00 0.00 0.00 99 1016.9
20260906015839 21 340 3.2 4.8 0.00 0.00 0.00 99 1016.7
20260906015338 21 48 0.0 4.8 0.00 0.00 0.00 99 1016.6
20260906014833 21 83 3.2 4.8 0.00 0.00 0.00 98 1016.5
20260906014327 21 351 3.2 4.8 0.00 0.00 0.00 98 1016.7
20260906013824 21 323 0.0 3.2 0.00 0.00 0.00 98 1016.6
20260906013318 21 33 3.2 4.8 0.00 0.00 0.00 98 1016.6
20260906012814 21 220 0.0 3.2 0.00 0.00 0.00 98 1016.6
20260906012309 21 119 0.0 3.2 0.00 0.00 0.00 98 1016.7
20260906011804 21 115 0.0 3.2 0.00 0.00 0.00 98 1016.7
20260906011304 21 135 0.0 4.8 0.00 0.00 0.00 98 1016.4
20260906010800 21 135 0.0 3.2 0.00 0.00 0.00 98 1016.5
20260906010256 21 132 0.0 3.2 0.00 0.00 0.00 98 1016.2
20260906005750 21 142 3.2 3.2 0.00 0.00 0.00 97 1016.2
20260906005250 21 55 4.8 4.8 0.00 0.00 0.00 97 1016.3
20260906004749 21 324 0.0 0.0 0.00 0.00 0.00 96 1016.2
20260906004244 21 44 0.0 4.8 0.00 0.00 0.00 97 1016.2
20260906003738 21 259 0.0 0.0 0.00 0.00 0.00 96 1016.3
20260906003234 21 259 0.0 0.0 0.00 0.00 0.00 95 1016.5
20260906002729 21 119 3.2 4.8 0.00 0.00 0.00 95 1016.3
20260906002228 21 162 0.0 0.0 0.00 0.00 0.00 95 1016.2
20260906001724 22 162 0.0 0.0 0.00 0.00 0.00 95 1016.1
20260906001220 22 129 0.0 3.2 0.00 0.00 0.00 95 1016.3
20260906000715 22 194 0.0 0.0 0.00 0.00 0.00 95 1016.2
20260906000212 22 80 0.0 0.0 0.00 0.00 0.00 94 1016.2
20260905235709 22 308 0.0 0.0 0.00 0.00 0.00 94 1016.1
20260905235204 22 177 0.0 4.8 0.00 0.00 0.00 94 1016.1
20260905234700 22 201 0.0 3.2 0.00 0.00 0.00 93 1016.1
20260905234155 22 171 3.2 3.2 0.00 0.00 0.00 93 1016.2
20260905233650 22 315 0.0 3.2 0.00 0.00 0.00 93 1016.2
20260905233149 23 209 0.0 4.8 0.00 0.00 0.00 92 1015.8
20260905232644 23 175 0.0 3.2 0.00 0.00 0.00 92 1015.9
20260905232140 23 197 4.8 4.8 0.00 0.00 0.00 91 1015.9
20260905231635 23 124 0.0 4.8 0.00 0.00 0.00 91 1015.9
20260905231131 23 163 0.0 3.2 0.00 0.00 0.00 93 1015.7
20260905230627 23 210 0.0 3.2 0.00 0.00 0.00 93 1015.8
20260905230125 23 144 0.0 0.0 0.00 0.00 0.00 93 1015.5
20260905225624 23 217 0.0 3.2 0.00 0.00 0.00 92 1015.6
20260905225114 23 145 4.8 4.8 0.00 0.00 0.00 91 1015.5
20260905224614 23 104 4.8 4.8 0.00 0.00 0.00 91 1015.6
20260905224113 23 197 0.0 3.2 0.00 0.00 0.00 91 1015.8
20260905223610 23 118 4.8 4.8 0.00 0.00 0.00 91 1015.7
20260905223107 23 231 4.8 4.8 0.00 0.00 0.00 90 1015.7
20260905222606 23 49 3.2 4.8 0.00 0.00 0.00 89 1015.6
20260905222101 23 139 0.0 0.0 0.00 0.00 0.00 90 1015.5
20260905221557 23 119 0.0 3.2 0.00 0.00 0.00 88 1015.8
20260905221053 24 121 0.0 3.2 0.00 0.00 0.00 87 1015.8
20260905220548 24 214 0.0 4.8 0.00 0.00 0.00 88 1015.8
20260905220045 24 141 4.8 4.8 0.00 0.00 0.00 86 1015.8
20260905215544 24 246 0.0 3.2 0.00 0.00 0.00 88 1015.9
20260905215040 24 22 0.0 3.2 0.00 0.00 0.00 88 1015.9
20260905214536 24 191 0.0 4.8 0.00 0.00 0.00 89 1015.7
20260905214031 24 58 0.0 0.0 0.00 0.00 0.00 89 1015.8
20260905213526 24 244 3.2 3.2 0.00 0.00 0.00 88 1015.8
20260905213022 24 139 0.0 3.2 0.00 0.00 0.00 90 1015.7
20260905212516 24 335 0.0 4.8 0.00 0.00 0.00 89 1015.9
20260905212017 24 182 0.0 6.4 0.00 0.00 0.00 87 1016.2
20260905211511 24 132 3.2 4.8 0.00 0.00 0.00 90 1016.3
20260905211007 23 139 0.0 3.2 0.00 0.00 0.00 90 1016.3
20260905210503 23 134 3.2 4.8 0.00 0.00 0.00 90 1016.4
20260905210002 23 224 0.0 4.8 0.00 0.00 0.00 89 1016.4
20260905205456 23 203 0.0 4.8 0.00 0.00 0.00 89 1016.4
20260905204955 23 111 4.8 4.8 0.00 0.00 0.00 88 1016.3
20260905204446 24 156 4.8 4.8 0.00 0.00 0.00 88 1016.6
20260905203945 24 155 3.2 4.8 0.00 0.00 0.00 87 1016.6
20260905203440 24 105 6.4 8.0 0.00 0.00 0.00 86 1016.3
20260905202935 24 135 0.0 3.2 0.00 0.00 0.00 87 1016.3
20260905202425 24 156 4.8 8.0 0.00 0.00 0.00 86 1016.6
20260905201920 25 132 4.8 9.7 0.00 0.00 0.00 85 1016.7
20260905201416 25 152 3.2 8.0 0.00 0.00 0.00 81 1016.6
20260905200915 25 236 4.8 6.4 0.00 0.00 0.00 80 1016.4
20260905200412 25 119 3.2 6.4 0.00 0.00 0.00 79 1016.6
20260905195909 25 154 0.0 6.4 0.00 0.00 0.00 78 1016.5
20260905195405 25 180 0.0 8.0 0.00 0.00 0.00 80 1016.5
20260905194901 26 257 0.0 3.2 0.00 0.00 0.00 80 1016.7
20260905194359 26 7 0.0 4.8 0.00 0.00 0.00 79 1016.6
20260905193854 26 271 4.8 6.4 0.00 0.00 0.00 80 1016.6
20260905193349 27 154 0.0 4.8 0.00 0.00 0.00 79 1016.6
20260905192844 27 162 8.0 9.7 0.00 0.00 0.00 76 1016.5
20260905192340 27 114 4.8 9.7 0.00 0.00 0.00 73 1016.1
20260905191839 28 137 6.4 9.7 0.00 0.00 0.00 71 1015.9
20260905191338 29 177 6.4 8.0 0.00 0.00 0.00 67 1016.1
20260905190837 29 155 0.0 9.7 0.00 0.00 0.00 63 1016.4
20260905190336 29 134 8.0 8.0 0.00 0.00 0.00 62 1016.5
20260905185835 29 198 4.8 4.8 0.00 0.00 0.00 67 1016.3
20260905185331 29 152 4.8 8.0 0.00 0.00 0.00 62 1016.4
20260905184829 29 102 4.8 9.7 0.00 0.00 0.00 62 1016.6
20260905184329 29 189 0.0 8.0 0.00 0.00 0.00 65 1016.4
20260905183827 29 335 0.0 8.0 0.00 0.00 0.00 63 1016.5
20260905183323 28 145 3.2 4.8 0.00 0.00 0.00 65 1016.5
20260905182818 29 143 4.8 4.8 0.00 0.00 0.00 68 1016.3
20260905182317 30 258 4.8 14.5 0.00 0.00 0.00 65 1016.2
20260905181807 30 134 8.0 14.5 0.00 0.00 0.00 67 1015.9
20260905181307 30 110 6.4 6.4 0.00 0.00 0.00 65 1016.2
20260905180806 30 95 8.0 11.3 0.00 0.00 0.00 65 1016.3
20260905180301 30 165 3.2 8.0 0.00 0.00 0.00 66 1016.5
20260905175756 30 109 4.8 8.0 0.00 0.00 0.00 67 1016.8
20260905175251 30 182 0.0 4.8 0.00 0.00 0.00 65 1016.9
20260905174746 30 94 4.8 4.8 0.00 0.00 0.00 69 1016.9
20260905174241 30 195 4.8 8.0 0.00 0.00 0.00 70 1017.0
20260905173738 29 104 4.8 6.4 0.00 0.00 0.00 67 1017.2
20260905173233 29 105 8.0 11.3 0.00 0.00 0.00 70 1017.0
20260905172732 28 111 3.2 8.0 0.00 0.00 0.00 69 1017.0
20260905172226 29 111 4.8 8.0 0.00 0.00 0.00 71 1017.2
20260905171717 29 91 4.8 8.0 0.00 0.00 0.00 67 1017.2
20260905171213 29 68 3.2 4.8 0.00 0.00 0.00 76 1017.2
20260905170710 29 85 6.4 6.4 0.00 0.00 0.00 76 1017.1
20260905170209 28 100 3.2 6.4 0.00 0.00 0.00 77 1017.3
20260905165709 28 86 4.8 4.8 0.00 0.00 0.00 74 1017.3
20260905165204 28 147 0.0 8.0 0.00 0.00 0.00 74 1017.2
20260905164659 28 50 0.0 3.2 0.00 0.00 0.00 78 1017.2
20260905164159 27 103 3.2 4.8 0.00 0.00 0.00 79 1017.5
20260905163654 27 134 3.2 4.8 0.00 0.00 0.00 82 1018.0
20260905163151 27 84 3.2 4.8 0.00 0.00 0.00 80 1017.9
20260905162647 26 135 0.0 6.4 0.00 0.00 0.00 83 1018.1
20260905162147 26 76 0.0 6.4 0.00 0.00 0.00 83 1018.1
20260905161647 26 44 0.0 4.8 0.00 0.00 0.00 86 1018.1
20260905161144 26 93 3.2 4.8 0.00 0.00 0.00 86 1018.1
20260905160638 25 108 0.0 4.8 0.00 0.00 0.00 87 1018.1
20260905160132 25 49 3.2 4.8 0.00 0.00 0.00 89 1018.1
20260905155626 25 69 3.2 4.8 0.00 0.00 0.00 90 1018.2
20260905155125 25 235 0.0 4.8 0.00 0.00 0.00 90 1018.3
20260905154620 24 41 0.0 3.2 0.00 0.00 0.00 94 1018.2
20260905154115 23 315 0.0 3.2 0.00 0.00 0.00 94 1018.2
20260905153611 23 100 3.2 4.8 0.00 0.00 0.00 96 1018.2
20260905153107 23 125 3.2 4.8 0.00 0.00 0.00 96 1018.4
20260905152601 23 113 0.0 0.0 0.00 0.00 0.00 95 1018.5
20260905152056 23 40 0.0 4.8 0.00 0.00 0.00 95 1018.6
20260905151551 22 76 3.2 4.8 0.00 0.00 0.00 96 1018.5
20260905151046 22 345 3.2 4.8 0.00 0.00 0.00 96 1018.6
20260905150541 22 77 3.2 6.4 0.00 0.00 0.00 97 1018.6
20260905150039 22 78 3.2 4.8 0.00 0.00 0.00 98 1018.8
20260905145532 22 128 0.0 3.2 0.00 0.00 0.00 99 1018.9
20260905145032 21 356 0.0 4.8 0.00 0.00 0.00 99 1018.9
20260905144527 21 64 3.2 6.4 0.00 0.00 0.00 99 1018.8
20260905144026 21 67 4.8 6.4 0.00 0.00 0.00 99 1018.9
20260905143525 21 47 0.0 4.8 0.00 0.00 0.00 99 1018.9
20260905143021 21 37 3.2 6.4 0.00 0.00 0.00 99 1019.1
20260905142519 21 49 4.8 6.4 0.00 0.00 0.00 99 1019.1
20260905142015 21 76 3.2 8.0 0.00 0.00 0.00 99 1019.2
20260905141509 21 59 4.8 4.8 0.00 0.00 0.00 99 1018.9
20260905141006 21 41 4.8 4.8 0.00 0.00 0.00 99 1019.2
20260905140500 21 98 3.2 4.8 0.00 0.00 0.00 99 1019.4
20260905135959 21 13 0.0 0.0 0.00 0.00 0.00 99 1019.1
20260905135455 21 13 0.0 3.2 0.00 0.00 0.00 99 1019.2
20260905134950 21 47 4.8 4.8 0.00 0.00 0.00 99 1019.2
20260905134449 21 11 0.0 4.8 0.00 0.00 0.00 99 1019.5
20260905133948 20 45 0.0 4.8 0.00 0.00 0.00 99 1019.4
20260905133443 20 101 3.2 4.8 0.00 0.00 0.00 99 1019.6
20260905132938 20 72 3.2 4.8 0.00 0.00 0.00 99 1019.4
20260905132433 20 92 3.2 4.8 0.00 0.00 0.00 99 1019.6
20260905131927 20 81 3.2 3.2 0.00 0.00 0.00 99 1019.2
20260905131423 20 58 0.0 3.2 0.00 0.00 0.00 99 1019.6
20260905130918 20 34 3.2 4.8 0.00 0.00 0.00 99 1019.6
20260905130417 20 183 0.0 0.0 0.00 0.00 0.00 99 1019.5
20260905125912 20 210 0.0 0.0 0.00 0.00 0.00 99 1019.5
20260905125407 20 230 0.0 4.8 0.00 0.00 0.00 99 1019.5
20260905124902 20 47 3.2 4.8 0.00 0.00 0.00 99 1019.5
20260905124359 20 0 0.0 3.2 0.00 0.00 0.00 99 1019.4
20260905123859 20 21 0.0 0.0 0.00 0.00 0.00 99 1019.5
20260905123356 20 44 0.0 3.2 0.00 0.00 0.00 99 1019.2
20260905122856 20 40 0.0 3.2 0.00 0.00 0.00 99 1019.2
20260905122355 20 27 4.8 4.8 0.00 0.00 0.00 99 1019.4
20260905121850 20 44 0.0 3.2 0.00 0.00 0.00 99 1019.0
20260905121347 20 23 0.0 3.2 0.00 0.00 0.00 99 1019.4
20260905120845 20 58 3.2 4.8 0.00 0.00 0.00 99 1019.1
20260905120340 20 61 4.8 4.8 0.00 0.00 0.00 99 1019.1
20260905115836 20 45 0.0 4.8 0.00 0.00 0.00 99 1019.2
20260905115335 20 66 3.2 4.8 0.00 0.00 0.00 99 1019.0
20260905114835 20 52 3.2 4.8 0.00 0.00 0.00 99 1018.8
20260905114334 20 46 0.0 4.8 0.00 0.00 0.00 99 1018.9
20260905113833 20 41 0.0 3.2 0.00 0.00 0.00 99 1019.0
20260905113330 20 0 0.0 3.2 0.00 0.00 0.00 99 1018.8
20260905112825 20 351 0.0 4.8 0.00 0.00 0.00 99 1018.7
20260905112319 20 50 4.8 4.8 0.00 0.00 0.00 99 1018.7
20260905111815 20 31 0.0 4.8 0.00 0.00 0.00 99 1018.6
20260905111309 20 52 0.0 4.8 0.00 0.00 0.00 99 1018.3
20260905110809 20 50 0.0 3.2 0.00 0.00 0.00 99 1018.4
20260905110308 20 33 0.0 4.8 0.00 0.00 0.00 99 1018.5
20260905105803 20 39 3.2 4.8 0.00 0.00 0.00 99 1018.5
20260905105306 20 31 0.0 3.2 0.00 0.00 0.00 99 1018.3
20260905104757 20 52 0.0 4.8 0.00 0.00 0.00 99 1018.3
20260905104253 20 49 0.0 4.8 0.00 0.00 0.00 99 1018.4
20260905103753 20 23 0.0 0.0 0.00 0.00 0.00 99 1018.0
20260905103248 20 49 0.0 3.2 0.00 0.00 0.00 99 1018.1
20260905102744 20 35 3.2 3.2 0.00 0.00 0.00 99 1018.2
20260905102241 20 156 0.0 0.0 0.00 0.00 0.00 99 1018.1
20260905101740 20 319 0.0 0.0 0.00 0.00 0.00 99 1018.0
20260905101238 20 303 0.0 0.0 0.00 0.00 0.00 99 1017.9
20260905100734 20 59 0.0 3.2 0.00 0.00 0.00 99 1018.0
20260905100230 20 44 0.0 4.8 0.00 0.00 0.00 99 1018.0